Everett, WA

9:33 AM PST on December 05, 2019 (GMT -0800)
Snohomish County

Weather History for KPAE - October, 2019

Change the Weather History Date:

Tuesday, October 29, 2019

  Actual Average Record
Temperature  
Mean Temperature 41 °F -  
Max Temperature 48 °F 54 °F 67 °F (1968)
Min Temperature 36 °F 39 °F 22 °F (1971)
Degree Days  
Heating Degree Days 24    
Moisture  
Dew Point 16 °F    
Average Humidity 39    
Maximum Humidity 83    
Minimum Humidity 20    
Precipitation  
Precipitation 0.00 in - - ()
Sea Level Pressure  
Sea Level Pressure 30.48 in    
Wind  
Wind Speed 6 mph (ESE)    
Max Wind Speed 10 mph    
Max Gust Speed -    
Visibility 10 miles    
Events      
Averages and records for this station are not official NWS values.
T = Trace of Precipitation, MM = Missing Value Source: NWS Daily Summary

Daily Weather History Graph

Daily Weather History Graph

Search for Another Location

Airport or City:

Astronomy

Oct. 29, 2019 Rise Set
Actual Time 7:49 AM PDT 5:55 PM PDT
Civil Twilight 7:16 AM PDT 6:27 PM PDT
Nautical Twilight 6:40 AM PDT 7:04 PM PDT
Astronomical Twilight 6:04 AM PDT 7:40 PM PDT
Moon 9:34 AM PDT (10/29) 7:17 PM PDT (10/29)
Length of Visible Light 11h 11m
Length of Day
10h 06m
Waxing Crescent, 4% of the Moon is Illuminated
Oct 29
Waxing Crescent
Nov 4
First Quarter
Nov 12
Full
Nov 19
Last Quarter
Nov 26
New

Hourly Weather History & Observations

Time (PDT) Temp. Windchill Dew Point Humidity Pressure Visibility Wind Dir Wind Speed Gust Speed Precip Events Conditions
12:53 AM 39.9 °F 35.8 °F 35.1 °F 83% 30.34 in 10.0 mi ENE 5.8 mph - N/A   Clear
1:53 AM 39.9 °F 35.8 °F 30.0 °F 68% 30.38 in 10.0 mi Variable 5.8 mph - N/A   Clear
2:53 AM 39.9 °F 33.4 °F 24.1 °F 53% 30.41 in 10.0 mi SSE 10.4 mph - N/A   Clear
3:53 AM 37.9 °F 31.5 °F 21.9 °F 53% 30.43 in 10.0 mi SSE 9.2 mph - N/A   Clear
4:53 AM 37.9 °F 32.1 °F 19.0 °F 47% 30.45 in 10.0 mi SSE 8.1 mph - N/A   Clear
5:53 AM 36.0 °F 31.1 °F 19.9 °F 52% 30.48 in 10.0 mi SSE 5.8 mph - N/A   Clear
6:53 AM 36.0 °F 31.1 °F 16.0 °F 44% 30.50 in 10.0 mi SSE 5.8 mph - N/A   Clear
7:53 AM 36.0 °F 32.1 °F 10.0 °F 34% 30.51 in 10.0 mi Variable 4.6 mph - N/A   Clear
8:53 AM 36.0 °F 30.3 °F 8.1 °F 31% 30.53 in 10.0 mi SSE 6.9 mph - N/A   Clear
9:53 AM 39.0 °F 33.4 °F 9.0 °F 29% 30.53 in 10.0 mi SSE 8.1 mph - N/A   Clear
10:53 AM 39.9 °F 35.1 °F 10.0 °F 29% 30.53 in 10.0 mi Variable 6.9 mph - N/A   Clear
11:53 AM 42.1 °F 39.2 °F 6.1 °F 23% 30.53 in 10.0 mi Variable 4.6 mph - N/A   Clear
12:53 PM 44.1 °F 40.8 °F 6.1 °F 21% 30.52 in 10.0 mi Variable 5.8 mph - N/A   Clear
1:53 PM 46.0 °F 43.1 °F 7.0 °F 20% 30.51 in 10.0 mi ESE 5.8 mph - N/A   Clear
2:53 PM 46.9 °F - 8.1 °F 21% 30.50 in 10.0 mi SSE 8.1 mph - N/A   Clear
3:53 PM 46.0 °F 44.8 °F 14.0 °F 28% 30.50 in 10.0 mi West 3.5 mph - N/A   Clear
4:53 PM 46.0 °F 44.8 °F 12.9 °F 26% 30.49 in 10.0 mi NW 3.5 mph - N/A   Clear
5:53 PM 42.1 °F 40.2 °F 15.1 °F 34% 30.48 in 10.0 mi North 3.5 mph - N/A   Clear
6:53 PM 41.0 °F - 18.0 °F 40% 30.48 in 10.0 mi Calm Calm - N/A   Scattered Clouds
7:53 PM 41.0 °F 39.0 °F 24.1 °F 51% 30.48 in 10.0 mi North 3.5 mph - N/A   Mostly Cloudy
8:53 PM 42.1 °F - 18.0 °F 38% 30.47 in 10.0 mi Calm Calm - N/A   Overcast
9:53 PM 41.0 °F 36.4 °F 17.1 °F 38% 30.47 in 10.0 mi East 6.9 mph - N/A   Clear
10:53 PM 39.9 °F 35.8 °F 12.0 °F 32% 30.47 in 10.0 mi ENE 5.8 mph - N/A   Clear
11:53 PM 37.0 °F 31.6 °F 12.9 °F 37% 30.46 in 10.0 mi East 6.9 mph - N/A   Clear